| time (UTC) | temp F | wind direction | speed knots | gust knots | rain 1hr in | rain 24hr in | rain mn in | humidity % | barometer mb |
| 20260507083100 | 41 | 270 | 0.9 | 5.2 | 0.00 | 0.06 | 0.00 | 76 | 1014.5 |
| 20260507081559 | 41 | 0 | 0.9 | 2.6 | 0.00 | 0.06 | 0.00 | 77 | 1014.5 |
| 20260507074558 | 42 | 271 | 0.9 | 2.6 | 0.00 | 0.07 | 0.00 | 76 | 1014.6 |
| 20260507073109 | 42 | 0 | 0.9 | 3.5 | 0.00 | 0.07 | 0.00 | 75 | 1014.6 |
| 20260507071600 | 43 | 272 | 0.0 | 2.6 | 0.00 | 0.07 | 0.00 | 73 | 1014.6 |
| 20260507070109 | 43 | 272 | 0.9 | 3.5 | 0.00 | 0.07 | 0.00 | 71 | 1014.7 |
| 20260507064604 | 44 | 271 | 0.9 | 6.1 | 0.00 | 0.08 | 0.00 | 71 | 1014.7 |
| 20260507063101 | 44 | 257 | 0.9 | 5.2 | 0.00 | 0.08 | 0.00 | 72 | 1014.9 |
| 20260507061600 | 44 | 258 | 0.0 | 5.2 | 0.00 | 0.08 | 0.00 | 71 | 1014.8 |
| 20260507060100 | 44 | 262 | 0.0 | 3.5 | 0.00 | 0.08 | 0.00 | 71 | 1014.7 |
| 20260507054558 | 45 | 0 | 0.9 | 5.2 | 0.00 | 0.09 | 0.00 | 71 | 1014.6 |
| 20260507053059 | 45 | 255 | 0.0 | 3.5 | 0.00 | 0.09 | 0.00 | 70 | 1014.6 |
| 20260507051607 | 46 | 0 | 0.9 | 3.5 | 0.00 | 0.09 | 0.00 | 70 | 1014.7 |
| 20260507050109 | 46 | 252 | 0.9 | 3.5 | 0.00 | 0.09 | 0.00 | 69 | 1014.5 |
| 20260507044600 | 46 | 241 | 1.7 | 6.1 | 0.00 | 0.11 | 0.00 | 70 | 1014.6 |
| 20260507043057 | 46 | 227 | 1.7 | 4.3 | 0.00 | 0.11 | 0.00 | 71 | 1014.5 |
| 20260507041601 | 47 | 0 | 0.9 | 3.5 | 0.00 | 0.11 | 0.00 | 70 | 1014.5 |
| 20260507040106 | 47 | 225 | 0.9 | 2.6 | 0.00 | 0.11 | 0.00 | 69 | 1014.5 |
| 20260507034559 | 48 | 0 | 0.9 | 4.3 | 0.00 | 0.13 | 0.11 | 69 | 1014.5 |
| 20260507033100 | 48 | 225 | 0.9 | 2.6 | 0.00 | 0.13 | 0.11 | 68 | 1014.4 |
| 20260507031600 | 49 | 225 | 0.0 | 2.6 | 0.00 | 0.13 | 0.11 | 67 | 1014.5 |
| 20260507030059 | 49 | 225 | 0.9 | 2.6 | 0.00 | 0.13 | 0.11 | 67 | 1014.4 |
| 20260507024558 | 49 | 0 | 0.0 | 1.7 | 0.00 | 0.16 | 0.11 | 67 | 1014.3 |
| 20260507023057 | 50 | 225 | 0.0 | 2.6 | 0.00 | 0.16 | 0.11 | 66 | 1014.4 |
| 20260507021611 | 50 | 0 | 0.0 | 0.9 | 0.00 | 0.16 | 0.11 | 65 | 1014.3 |
| 20260507020059 | 50 | 0 | 0.0 | 1.7 | 0.00 | 0.16 | 0.11 | 64 | 1014.3 |
| 20260507014600 | 51 | 0 | 0.0 | 0.9 | 0.00 | 0.20 | 0.11 | 64 | 1014.3 |
| 20260507013057 | 51 | 0 | 0.0 | 1.7 | 0.00 | 0.20 | 0.11 | 63 | 1014.0 |
| 20260507011600 | 52 | 0 | 0.0 | 1.7 | 0.00 | 0.20 | 0.11 | 59 | 1013.9 |
| 20260507004600 | 53 | 0 | 0.0 | 2.6 | 0.00 | 0.24 | 0.11 | 58 | 1013.5 |
| 20260507003100 | 53 | 225 | 0.0 | 2.6 | 0.00 | 0.24 | 0.11 | 56 | 1013.3 |
| 20260507001606 | 54 | 238 | 0.9 | 3.5 | 0.00 | 0.24 | 0.11 | 57 | 1013.3 |
| 20260507000059 | 54 | 211 | 1.7 | 5.2 | 0.00 | 0.24 | 0.11 | 55 | 1013.3 |
| 20260506234624 | 54 | 281 | 1.7 | 5.2 | 0.00 | 0.29 | 0.11 | 55 | 1013.3 |
| 20260506233100 | 54 | 225 | 1.7 | 7.8 | 0.00 | 0.29 | 0.11 | 53 | 1013.3 |
| 20260506231557 | 55 | 263 | 0.0 | 3.5 | 0.00 | 0.29 | 0.11 | 52 | 1013.4 |
| 20260506230100 | 55 | 221 | 2.6 | 6.1 | 0.00 | 0.29 | 0.11 | 50 | 1013.4 |
| 20260506224600 | 56 | 248 | 2.6 | 6.1 | 0.00 | 0.33 | 0.11 | 48 | 1013.4 |
| 20260506223101 | 56 | 261 | 4.3 | 7.8 | 0.00 | 0.33 | 0.11 | 50 | 1013.6 |
| 20260506221600 | 55 | 246 | 2.6 | 10.4 | 0.00 | 0.33 | 0.11 | 49 | 1013.4 |
| 20260506214601 | 55 | 280 | 1.7 | 6.1 | 0.00 | 0.35 | 0.11 | 49 | 1013.3 |
| 20260506213059 | 55 | 269 | 2.6 | 7.8 | 0.00 | 0.35 | 0.11 | 48 | 1013.3 |
| 20260506211601 | 56 | 242 | 4.3 | 10.4 | 0.00 | 0.35 | 0.11 | 49 | 1013.4 |
| 20260506210059 | 55 | 198 | 4.3 | 11.3 | 0.00 | 0.35 | 0.11 | 50 | 1013.4 |
| 20260506204603 | 55 | 220 | 5.2 | 10.4 | 0.00 | 0.37 | 0.11 | 50 | 1013.5 |
| 20260506203058 | 54 | 208 | 4.3 | 10.4 | 0.00 | 0.37 | 0.11 | 46 | 1013.4 |
| 20260506201601 | 54 | 190 | 2.6 | 8.7 | 0.00 | 0.37 | 0.11 | 50 | 1013.4 |
| 20260506200111 | 54 | 281 | 3.5 | 7.8 | 0.00 | 0.37 | 0.11 | 50 | 1013.6 |
| 20260506194622 | 54 | 254 | 2.6 | 7.0 | 0.00 | 0.38 | 0.11 | 51 | 1013.7 |
| 20260506193100 | 54 | 258 | 3.5 | 9.6 | 0.00 | 0.38 | 0.11 | 49 | 1013.7 |
| 20260506191600 | 54 | 290 | 4.3 | 9.6 | 0.00 | 0.38 | 0.11 | 49 | 1013.7 |
| 20260506190104 | 54 | 290 | 2.6 | 7.0 | 0.00 | 0.38 | 0.11 | 49 | 1013.6 |
| 20260506184611 | 54 | 261 | 1.7 | 7.0 | 0.00 | 0.39 | 0.11 | 49 | 1013.7 |
| 20260506183107 | 54 | 270 | 1.7 | 6.1 | 0.00 | 0.39 | 0.11 | 50 | 1013.6 |
| 20260506181609 | 54 | 255 | 2.6 | 6.1 | 0.00 | 0.39 | 0.11 | 49 | 1013.7 |
| 20260506180106 | 55 | 228 | 1.7 | 7.0 | 0.00 | 0.39 | 0.11 | 47 | 1013.7 |
| 20260506174604 | 55 | 207 | 3.5 | 7.8 | 0.00 | 0.39 | 0.11 | 47 | 1013.6 |
| 20260506173115 | 55 | 292 | 2.6 | 7.0 | 0.00 | 0.39 | 0.11 | 48 | 1013.6 |
| 20260506171602 | 55 | 290 | 2.6 | 7.0 | 0.00 | 0.39 | 0.11 | 49 | 1013.4 |
| 20260506170100 | 55 | 0 | 2.6 | 6.1 | 0.00 | 0.39 | 0.11 | 48 | 1013.6 |
| 20260506164558 | 55 | 277 | 2.6 | 7.8 | 0.00 | 0.39 | 0.11 | 49 | 1013.6 |
| 20260506163107 | 55 | 257 | 2.6 | 7.8 | 0.00 | 0.39 | 0.11 | 47 | 1013.6 |
| 20260506161606 | 56 | 300 | 2.6 | 8.7 | 0.01 | 0.39 | 0.11 | 50 | 1013.7 |
| 20260506160100 | 56 | 208 | 3.5 | 7.0 | 0.01 | 0.39 | 0.11 | 50 | 1013.7 |
| 20260506154558 | 55 | 11 | 3.5 | 8.7 | 0.01 | 0.39 | 0.11 | 52 | 1013.7 |
| 20260506153100 | 54 | 290 | 1.7 | 7.8 | 0.01 | 0.39 | 0.11 | 55 | 1013.8 |
| 20260506151610 | 54 | 322 | 2.6 | 7.0 | 0.00 | 0.38 | 0.10 | 53 | 1013.6 |
| 20260506150106 | 53 | 338 | 2.6 | 7.8 | 0.00 | 0.38 | 0.10 | 54 | 1013.3 |
| 20260506144617 | 52 | 5 | 2.6 | 5.2 | 0.00 | 0.38 | 0.10 | 58 | 1013.5 |
| 20260506143104 | 52 | 0 | 0.9 | 4.3 | 0.01 | 0.38 | 0.10 | 62 | 1013.3 |
| 20260506141559 | 51 | 0 | 0.0 | 8.7 | 0.01 | 0.38 | 0.10 | 62 | 1013.1 |
| 20260506140108 | 50 | 313 | 2.6 | 7.8 | 0.01 | 0.38 | 0.10 | 63 | 1012.9 |
| 20260506134600 | 50 | 290 | 3.5 | 7.0 | 0.01 | 0.38 | 0.10 | 64 | 1012.9 |
| 20260506133100 | 50 | 335 | 3.5 | 9.6 | 0.00 | 0.37 | 0.09 | 66 | 1012.9 |
| 20260506131601 | 49 | 323 | 3.5 | 8.7 | 0.00 | 0.37 | 0.09 | 70 | 1012.8 |
| 20260506130133 | 48 | 5 | 2.6 | 7.0 | 0.00 | 0.37 | 0.09 | 78 | 1012.4 |
| 20260506124559 | 46 | 352 | 1.7 | 7.0 | 0.01 | 0.38 | 0.09 | 89 | 1012.4 |
| 20260506123058 | 45 | 336 | 1.7 | 5.2 | 0.01 | 0.38 | 0.09 | 96 | 1012.2 |
| 20260506121604 | 45 | 278 | 1.7 | 5.2 | 0.01 | 0.38 | 0.09 | 97 | 1012.0 |
| 20260506114559 | 44 | 0 | 0.0 | 2.6 | 0.00 | 0.37 | 0.08 | 97 | 1011.5 |
| 20260506113107 | 44 | 0 | 0.0 | 1.7 | 0.01 | 0.37 | 0.08 | 97 | 1011.5 |
| 20260506111600 | 43 | 0 | 0.0 | 0.9 | 0.01 | 0.37 | 0.08 | 97 | 1011.0 |
| 20260506110105 | 43 | 0 | 0.0 | 0.9 | 0.01 | 0.37 | 0.08 | 97 | 1010.9 |
| 20260506104616 | 43 | 0 | 0.0 | 0.9 | 0.01 | 0.38 | 0.08 | 97 | 1010.7 |
| 20260506103100 | 43 | 0 | 0.0 | 2.6 | 0.00 | 0.37 | 0.07 | 97 | 1010.5 |
| 20260506101606 | 43 | 0 | 0.0 | 1.7 | 0.00 | 0.37 | 0.07 | 97 | 1010.4 |
| 20260506100059 | 43 | 0 | 0.0 | 1.7 | 0.01 | 0.37 | 0.07 | 97 | 1010.1 |
| 20260506094605 | 43 | 163 | 0.0 | 1.7 | 0.01 | 0.40 | 0.07 | 97 | 1010.1 |
| 20260506093105 | 43 | 0 | 0.0 | 1.7 | 0.01 | 0.40 | 0.07 | 97 | 1010.1 |
| 20260506091601 | 43 | 0 | 0.0 | 1.7 | 0.01 | 0.40 | 0.07 | 97 | 1010.3 |
| 20260506084608 | 43 | 0 | 0.0 | 1.7 | 0.01 | 0.41 | 0.06 | 96 | 1010.0 |